This is the latest recevied weather packets stored in our database for station/object DM5KA-13. If no packets are shown the sender has not sent any weather packets the latest 10 day(s).
| Time | Temp. | Humidity | Pressure | Rain* | Wind** | Luminosity | Snow |
|---|---|---|---|---|---|---|---|
| 1777398604 | 12.78° C | 24% | 1024.5 hPa | 0 mm | 1.79 m/s, 0° | - | - |
| 1777397703 | 13.89° C | 24% | 1024.4 hPa | 0 mm | 0.89 m/s, 0° | - | - |
| 1777396803 | 13.89° C | 24% | 1024.3 hPa | 0 mm | 0.45 m/s, 0° | - | - |
| 1777396503 | 13.89° C | 24% | 1024.4 hPa | 0 mm | 0.89 m/s, 0° | - | - |
| 1777394106 | 15° C | 26% | 1024.3 hPa | 0 mm | 0.89 m/s, 0° | - | - |
| 1777393803 | 15° C | 26% | 1024.3 hPa | 0 mm | 0.45 m/s, 0° | - | - |
| 1777392914 | 15° C | 26% | 1024.2 hPa | 0 mm | 1.34 m/s, 0° | - | - |
| 1777392615 | 15° C | 26% | 1024.2 hPa | 0 mm | 1.34 m/s, 0° | - | - |
| 1777392315 | 15° C | 27% | 1024.2 hPa | 0 mm | 0.45 m/s, 0° | - | - |
| 1777392015 | 15° C | 27% | 1024.2 hPa | 0 mm | 0.45 m/s, 0° | - | - |
| 1777391715 | 15° C | 27% | 1024.2 hPa | 0 mm | 0.89 m/s, 0° | - | - |
| 1777391115 | 15° C | 28% | 1024.3 hPa | 0 mm | 0.89 m/s, 0° | - | - |
| 1777390515 | 15° C | 28% | 1024.3 hPa | 0 mm | 0.89 m/s, 0° | - | - |
| 1777390215 | 16.11° C | 28% | 1024.3 hPa | 0 mm | 0.89 m/s, 0° | - | - |
| 1777389915 | 16.11° C | 28% | 1024.3 hPa | 0 mm | 0.45 m/s, 0° | - | - |
| 1777389314 | 16.11° C | 28% | 1024.4 hPa | 0 mm | 0.89 m/s, 0° | - | - |
| 1777389027 | 15° C | 28% | 1024.4 hPa | 0 mm | 0.45 m/s, 0° | - | - |
| 1777388426 | 15° C | 28% | 1024.4 hPa | 0 mm | 1.34 m/s, 0° | - | - |
| 1777388102 | 16.11° C | 28% | 1024.5 hPa | 0 mm | 0.89 m/s, 0° | - | - |
| 1777386026 | 16.11° C | 29% | 1024.8 hPa | 0 mm | 0.89 m/s, 0° | - | - |
| 1777385702 | 15° C | 29% | 1024.8 hPa | 0 mm | 0.45 m/s, 0° | - | - |
| 1777384214 | 16.11° C | 30% | 1024.9 hPa | 0 mm | 1.34 m/s, 0° | - | - |
| 1777383314 | 15° C | 30% | 1024.9 hPa | 0 mm | 0.45 m/s, 0° | - | - |
| 1777383014 | 16.11° C | 29% | 1024.9 hPa | 0 mm | 0.45 m/s, 0° | - | - |
| 1777382414 | 16.11° C | 29% | 1025 hPa | 0 mm | 0.45 m/s, 0° | - | - |
* Rain latest hour (hover to see other rain measurements)
** Current wind speed in m/s (hover to see current wind gust speed)